FW7227 Weather Reports


time (UTC)temp
C
wind
direction
speed
KPH
gust
KPH
rain 1hr
cm
rain 24hr
cm
rain mn
cm
humidity
%
barometer
mb
20260902092557 17 185 0.0 8.0 0.00 0.00 0.00 82 1019.9
20260902092100 17 185 1.6 8.0 0.00 0.00 0.00 82 1019.8
20260902091603 16 185 1.6 6.4 0.00 0.00 0.00 84 1019.9
20260902091057 16 185 0.0 6.4 0.00 0.00 0.00 85 1019.8
20260902090557 16 185 3.2 6.4 0.00 0.00 0.00 85 1019.8
20260902090120 16 185 1.6 6.4 0.00 0.00 0.00 86 1019.9
20260902085557 16 185 3.2 6.4 0.00 0.00 0.00 86 1019.9
20260902085056 16 185 1.6 6.4 0.00 0.00 0.00 87 1019.9
20260902084604 15 185 1.6 6.4 0.00 0.00 0.00 88 1019.9
20260902084057 15 185 1.6 6.4 0.00 0.00 0.00 87 1020.0
20260902083557 15 189 1.6 4.8 0.00 0.00 0.00 87 1019.9
20260902083106 15 189 1.6 6.4 0.00 0.00 0.00 87 1020.0
20260902082600 15 189 0.0 6.4 0.00 0.00 0.00 89 1020.0
20260902082057 15 0 1.6 6.4 0.00 0.00 0.00 89 1020.0
20260902081601 15 189 1.6 6.4 0.00 0.00 0.00 89 1020.0
20260902081057 15 188 1.6 8.0 0.00 0.00 0.00 90 1020.1
20260902080557 15 188 1.6 8.0 0.00 0.00 0.00 90 1019.9
20260902080059 15 188 1.6 8.0 0.00 0.00 0.00 90 1020.0
20260902075556 14 190 1.6 8.0 0.00 0.00 0.00 91 1019.9
20260902075058 14 185 1.6 6.4 0.00 0.00 0.00 92 1019.9
20260902074613 14 178 1.6 6.4 0.00 0.00 0.00 92 1019.9
20260902074056 13 178 0.0 6.4 0.00 0.00 0.00 93 1019.8
20260902073558 13 178 1.6 8.0 0.00 0.00 0.00 93 1019.8
20260902073104 13 178 1.6 8.0 0.00 0.00 0.00 93 1019.8
20260902072556 13 178 0.0 8.0 0.00 0.00 0.00 94 1019.8
20260902072056 13 178 1.6 8.0 0.00 0.00 0.00 94 1019.8
20260902071606 13 188 4.8 12.9 0.00 0.00 0.00 94 1019.8
20260902071057 13 187 3.2 12.9 0.00 0.00 0.00 94 1019.9
20260902070556 13 169 3.2 12.9 0.00 0.00 0.00 94 1019.8
20260902070105 13 165 3.2 12.9 0.00 0.00 0.00 94 1019.8
20260902065557 13 160 4.8 12.9 0.00 0.20 0.00 94 1019.8
20260902065058 12 169 3.2 11.3 0.00 0.20 0.00 95 1019.8
20260902064601 12 178 4.8 14.5 0.00 0.20 0.00 95 1019.9
20260902064056 12 165 6.4 14.5 0.00 0.20 0.00 95 1019.8
20260902063556 12 177 1.6 14.5 0.00 0.20 0.00 95 1019.8
20260902063103 12 171 6.4 14.5 0.00 0.20 0.00 95 1019.8
20260902062555 12 167 4.8 12.9 0.00 0.20 0.00 95 1019.8
20260902062100 12 173 4.8 11.3 0.00 0.20 0.00 95 1019.8
20260902061101 12 187 4.8 11.3 0.00 0.20 0.00 95 1019.8
20260902060555 12 161 4.8 11.3 0.00 0.20 0.00 95 1019.9
20260902055556 12 168 4.8 11.3 0.00 0.20 0.00 95 1019.9
20260902055057 12 173 3.2 11.3 0.00 0.20 0.00 95 1019.8
20260902054641 12 172 4.8 9.7 0.00 0.20 0.00 95 1019.9
20260902054056 12 167 3.2 9.7 0.00 0.20 0.00 95 1019.8
20260902053556 12 163 4.8 9.7 0.00 0.20 0.00 95 1019.8
20260902053108 11 165 3.2 8.0 0.00 0.20 0.00 95 1019.9
20260902052556 11 165 1.6 9.7 0.00 0.20 0.00 95 1019.8
20260902052056 11 165 1.6 9.7 0.00 0.20 0.00 95 1019.8
20260902051602 11 167 3.2 9.7 0.00 0.20 0.00 96 1019.8
20260902051056 11 167 3.2 9.7 0.00 0.20 0.00 95 1019.8
20260902050556 11 170 1.6 9.7 0.00 0.20 0.00 95 1019.9
20260902045556 11 171 3.2 9.7 0.00 0.20 0.00 95 1019.8
20260902045058 11 169 3.2 9.7 0.00 0.20 0.00 95 1019.8
20260902044611 11 171 4.8 11.3 0.00 0.20 0.00 95 1019.8
20260902044057 11 171 4.8 11.3 0.00 0.20 0.00 95 1019.8
20260902043556 11 173 4.8 9.7 0.00 0.20 0.00 95 1019.8
20260902043109 11 172 6.4 11.3 0.00 0.20 0.00 95 1019.8
20260902042556 11 0 4.8 11.3 0.00 0.20 0.00 95 1019.8
20260902042056 11 167 4.8 9.7 0.00 0.20 0.00 95 1019.9
20260902041603 11 167 4.8 9.7 0.00 0.20 0.00 95 1019.9
20260902041056 11 192 1.6 6.4 0.00 0.20 0.00 95 1019.9
20260902040558 10 0 1.6 4.8 0.00 0.20 0.00 95 1019.9
20260902040107 10 214 1.6 4.8 0.00 0.20 0.00 94 1019.9
20260902035556 10 0 0.0 4.8 0.00 0.20 0.00 94 1019.9
20260902035058 10 0 0.0 3.2 0.00 0.20 0.00 94 1019.9
20260902034606 10 0 0.0 0.0 0.00 0.20 0.00 94 1019.9
20260902034056 10 0 0.0 0.0 0.00 0.20 0.00 93 1020.0
20260902033600 10 0 0.0 0.0 0.00 0.20 0.00 93 1020.0
20260902033101 10 0 0.0 0.0 0.00 0.20 0.00 93 1020.0
20260902032557 10 0 0.0 0.0 0.00 0.20 0.00 93 1020.1
20260902032056 10 0 0.0 0.0 0.00 0.20 0.00 93 1020.0
20260902031608 10 0 0.0 0.0 0.00 0.20 0.00 93 1020.1
20260902031058 10 0 0.0 0.0 0.00 0.20 0.00 93 1020.1
20260902030556 10 0 0.0 0.0 0.00 0.20 0.00 93 1020.1
20260902030104 10 0 0.0 0.0 0.00 0.20 0.00 93 1020.2
20260902025557 10 0 0.0 0.0 0.00 0.20 0.00 93 1020.2
20260902025057 10 0 0.0 0.0 0.00 0.20 0.00 93 1020.2
20260902024605 10 0 0.0 0.0 0.00 0.20 0.00 93 1020.2
20260902024056 10 0 0.0 0.0 0.00 0.20 0.00 93 1020.2
20260902023557 10 0 0.0 0.0 0.00 0.20 0.00 93 1020.2
20260902023110 10 0 0.0 0.0 0.00 0.20 0.00 92 1020.2
20260902022557 10 0 0.0 0.0 0.00 0.20 0.00 92 1020.2
20260902022057 10 0 0.0 0.0 0.00 0.20 0.00 92 1020.2
20260902021603 10 0 0.0 0.0 0.00 0.20 0.00 92 1020.3
20260902021059 10 0 0.0 0.0 0.00 0.20 0.00 92 1020.2
20260902020602 10 0 0.0 0.0 0.00 0.20 0.00 92 1020.2
20260902020105 10 0 0.0 0.0 0.00 0.20 0.00 92 1020.0
20260902015557 10 0 0.0 0.0 0.00 0.20 0.00 92 1019.9
20260902015058 11 0 0.0 0.0 0.00 0.20 0.00 92 1019.9
20260902014600 11 0 0.0 0.0 0.00 0.20 0.00 92 1019.9
20260902014057 11 0 0.0 0.0 0.00 0.20 0.00 92 1019.9
20260902013558 11 0 0.0 0.0 0.00 0.20 0.00 92 1019.9
20260902013106 11 0 0.0 0.0 0.00 0.20 0.00 92 1019.9
20260902012600 11 0 0.0 0.0 0.00 0.20 0.00 92 1019.8
20260902012057 11 0 0.0 0.0 0.00 0.20 0.00 92 1019.8
20260902011601 11 0 0.0 0.0 0.00 0.20 0.00 92 1019.8
20260902011058 11 0 0.0 0.0 0.00 0.20 0.00 92 1019.9
20260902010557 11 0 0.0 0.0 0.00 0.20 0.00 92 1019.9
20260902010112 11 0 0.0 0.0 0.00 0.20 0.00 92 1019.9
20260902005558 11 0 0.0 0.0 0.00 0.20 0.00 92 1019.9
20260902005059 11 0 0.0 0.0 0.00 0.20 0.00 93 1020.0
20260902004607 11 0 0.0 0.0 0.00 0.20 0.00 93 1020.1
20260902004058 12 0 0.0 0.0 0.00 0.20 0.00 93 1020.1
20260902003558 12 0 0.0 0.0 0.00 0.20 0.00 93 1020.2
20260902003106 12 0 0.0 0.0 0.00 0.20 0.00 93 1020.2
20260902002600 12 0 0.0 0.0 0.00 0.20 0.00 93 1020.3
20260902002057 12 0 0.0 3.2 0.00 0.20 0.00 93 1020.3
20260902001621 12 0 0.0 4.8 0.00 0.20 0.00 93 1020.4
20260902001059 12 248 0.0 4.8 0.00 0.20 0.00 93 1020.4
20260902000557 12 0 1.6 4.8 0.00 0.20 0.00 93 1020.3
20260902000108 12 248 1.6 4.8 0.00 0.20 0.00 93 1020.3
20260901235557 12 248 0.0 4.8 0.00 0.20 0.00 93 1020.2
20260901235058 12 248 1.6 4.8 0.00 0.20 0.00 93 1020.3
20260901234604 12 0 0.0 1.6 0.00 0.20 0.00 93 1020.2
20260901234057 12 0 0.0 3.2 0.00 0.20 0.00 93 1020.3
20260901233556 12 0 0.0 3.2 0.00 0.20 0.00 93 1020.2
20260901233105 12 0 0.0 4.8 0.00 0.20 0.00 93 1020.2
20260901232558 12 248 0.0 4.8 0.00 0.20 0.00 93 1020.3
20260901232057 12 248 1.6 4.8 0.00 0.20 0.00 93 1020.3
20260901231607 12 248 1.6 4.8 0.00 0.20 0.00 93 1020.3
20260901231056 12 0 0.0 3.2 0.00 0.20 0.00 92 1020.2
20260901230557 12 0 0.0 3.2 0.00 0.20 0.00 92 1020.2
20260901230058 13 248 1.6 3.2 0.00 0.20 0.00 92 1020.2
20260901225557 13 248 1.6 3.2 0.00 0.20 0.00 92 1020.2
20260901225056 13 248 1.6 4.8 0.00 0.20 0.00 92 1020.2
20260901224602 13 248 0.0 4.8 0.00 0.20 0.00 91 1020.2
20260901224056 13 248 1.6 4.8 0.00 0.20 0.00 91 1020.2
20260901223556 13 248 3.2 6.4 0.00 0.20 0.00 91 1020.1
20260901223059 13 248 3.2 6.4 0.00 0.20 0.00 91 1020.1
20260901222555 13 248 1.6 6.4 0.00 0.20 0.00 91 1020.1
20260901222059 13 248 1.6 6.4 0.00 0.20 0.00 91 1020.2
20260901221618 13 248 3.2 6.4 0.00 0.20 0.00 91 1020.2
20260901221056 13 249 3.2 6.4 0.00 0.20 0.00 90 1020.2
20260901220556 13 249 1.6 6.4 0.00 0.20 0.00 90 1020.1
20260901220116 14 249 3.2 8.0 0.00 0.20 0.00 90 1020.1
20260901215557 14 249 3.2 8.0 0.00 0.20 0.20 89 1020.1
20260901215057 14 250 1.6 8.0 0.00 0.20 0.20 89 1020.1
20260901214604 14 246 1.6 8.0 0.00 0.20 0.20 89 1020.1
20260901214056 14 248 3.2 8.0 0.00 0.20 0.20 88 1020.1
20260901213557 15 246 3.2 11.3 0.00 0.20 0.20 88 1020.2
20260901213107 15 245 3.2 11.3 0.00 0.20 0.20 88 1020.2
20260901212558 15 234 1.6 11.3 0.00 0.20 0.20 88 1020.1
20260901212057 15 234 3.2 12.9 0.00 0.20 0.20 87 1020.1
20260901211600 15 240 3.2 12.9 0.00 0.20 0.20 87 1020.1
20260901211057 15 0 6.4 12.9 0.00 0.20 0.20 87 1020.0
20260901210555 15 252 6.4 12.9 0.00 0.20 0.20 86 1020.0
20260901210107 15 244 6.4 14.5 0.00 0.20 0.20 86 1020.0
20260901205555 15 253 4.8 14.5 0.00 0.20 0.20 86 1020.0
20260901205058 15 246 6.4 14.5 0.00 0.20 0.20 86 1020.0
20260901204606 15 236 6.4 14.5 0.00 0.20 0.20 86 1020.0
20260901204102 15 236 6.4 14.5 0.00 0.20 0.20 86 1020.0
20260901203556 15 242 4.8 14.5 0.00 0.20 0.20 85 1019.9
20260901203103 15 257 4.8 16.1 0.00 0.20 0.20 85 1020.0
20260901202556 16 240 6.4 16.1 0.00 0.20 0.20 85 1019.9
20260901202059 16 254 8.0 16.1 0.00 0.20 0.20 84 1020.0
20260901201600 16 245 6.4 16.1 0.00 0.20 0.20 84 1019.9
20260901201058 16 240 8.0 14.5 0.00 0.20 0.20 84 1019.8
20260901200557 16 251 6.4 17.7 0.00 0.20 0.20 84 1019.9
20260901200104 16 254 6.4 19.3 0.00 0.20 0.20 84 1019.8
20260901195557 16 248 6.4 19.3 0.00 0.20 0.20 83 1019.8
20260901195058 16 250 6.4 19.3 0.00 0.20 0.20 83 1019.7
20260901194603 16 275 9.7 20.9 0.00 0.20 0.20 83 1019.7
20260901194057 16 240 6.4 20.9 0.00 0.20 0.20 82 1019.7
20260901193557 16 269 8.0 22.5 0.00 0.20 0.20 82 1019.6
20260901193101 16 269 11.3 22.5 0.00 0.20 0.20 81 1019.6
20260901192557 16 259 8.0 22.5 0.00 0.20 0.20 81 1019.6
20260901192059 16 271 9.7 19.3 0.00 0.20 0.20 81 1019.6
20260901191610 16 252 9.7 19.3 0.00 0.20 0.20 81 1019.6
20260901191058 16 260 9.7 17.7 0.00 0.20 0.20 80 1019.6
20260901190557 16 261 9.7 17.7 0.00 0.20 0.20 80 1019.6
20260901190104 16 243 8.0 17.7 0.00 0.20 0.20 80 1019.5
20260901185559 16 254 6.4 19.3 0.00 0.20 0.20 80 1019.4
20260901185057 17 245 8.0 19.3 0.00 0.20 0.20 79 1019.5
20260901184601 17 261 6.4 16.1 0.00 0.20 0.20 79 1019.3
20260901184058 17 257 8.0 19.3 0.00 0.20 0.20 79 1019.2
20260901183557 17 262 9.7 19.3 0.00 0.20 0.20 78 1019.0
20260901183103 17 265 9.7 19.3 0.00 0.20 0.20 78 1019.0
20260901182601 17 254 6.4 14.5 0.00 0.20 0.20 79 1019.0
20260901182058 17 259 4.8 12.9 0.00 0.20 0.20 78 1018.9
20260901181611 17 276 3.2 11.3 0.00 0.20 0.20 78 1018.9
20260901181057 17 267 3.2 12.9 0.00 0.20 0.20 78 1018.9
20260901180557 17 264 6.4 12.9 0.00 0.20 0.20 78 1018.8
20260901180107 17 244 4.8 12.9 0.00 0.20 0.20 78 1018.8
20260901175558 17 257 4.8 12.9 0.00 0.36 0.20 78 1018.8
20260901175057 17 233 4.8 12.9 0.00 0.36 0.20 78 1018.8
20260901174602 17 242 4.8 11.3 0.00 0.36 0.20 77 1018.7
20260901174058 17 241 3.2 11.3 0.00 0.36 0.20 77 1018.7
20260901173558 17 232 3.2 12.9 0.00 0.36 0.20 77 1018.6
20260901173103 18 248 4.8 12.9 0.00 0.36 0.20 76 1018.7
20260901172557 18 237 6.4 14.5 0.00 0.36 0.20 76 1018.6
20260901172059 18 257 6.4 17.7 0.00 0.36 0.20 75 1018.6
20260901171607 18 277 8.0 17.7 0.00 0.36 0.20 75 1018.6
20260901171058 18 268 8.0 19.3 0.00 0.36 0.20 74 1018.6
20260901170558 18 241 6.4 19.3 0.00 0.36 0.20 74 1018.7
20260901170100 18 247 9.7 19.3 0.00 0.36 0.20 74 1018.7
20260901165557 18 245 9.7 19.3 0.00 0.41 0.20 74 1018.7
20260901165058 18 257 11.3 19.3 0.00 0.41 0.20 72 1018.7
20260901164606 18 219 6.4 20.9 0.00 0.41 0.20 72 1018.7
20260901164057 19 258 11.3 20.9 0.00 0.41 0.20 70 1018.6
20260901163557 19 265 8.0 19.3 0.00 0.41 0.20 71 1018.5
20260901163107 19 281 9.7 20.9 0.00 0.41 0.20 70 1018.5
20260901162600 19 254 11.3 20.9 0.00 0.41 0.20 69 1018.4
20260901162057 20 273 9.7 20.9 0.00 0.41 0.20 69 1018.4
20260901161611 19 257 11.3 20.9 0.00 0.41 0.20 70 1018.4
20260901161058 19 299 12.9 20.9 0.00 0.41 0.20 70 1018.6
20260901160556 19 255 9.7 19.3 0.00 0.41 0.20 72 1018.5
20260901160111 18 224 9.7 19.3 0.00 0.41 0.20 72 1018.5
20260901155558 19 243 9.7 17.7 0.00 0.43 0.20 73 1018.5
20260901155102 18 272 8.0 22.5 0.00 0.43 0.20 74 1018.4
20260901154605 18 240 8.0 22.5 0.00 0.43 0.20 74 1018.5
20260901154057 18 291 11.3 20.9 0.00 0.43 0.20 73 1018.5
20260901153558 18 270 9.7 17.7 0.00 0.43 0.20 73 1018.5
20260901153105 18 267 8.0 20.9 0.00 0.43 0.20 73 1018.5
20260901152557 18 262 8.0 24.1 0.00 0.43 0.20 72 1018.5
20260901152057 18 265 9.7 25.7 0.00 0.43 0.20 71 1018.5
20260901151611 18 265 12.9 33.8 0.00 0.43 0.20 70 1018.5
20260901151059 18 250 17.7 33.8 0.00 0.43 0.20 69 1018.5
20260901150559 19 275 17.7 30.6 0.00 0.43 0.20 66 1018.5
20260901150103 19 248 12.9 29.0 0.00 0.43 0.20 67 1018.5
20260901145558 20 239 16.1 30.6 0.00 0.56 0.20 66 1018.5
20260901145059 20 276 11.3 30.6 0.00 0.56 0.20 68 1018.5
20260901144611 19 253 11.3 27.4 0.00 0.56 0.20 68 1018.4
20260901144101 19 317 12.9 27.4 0.00 0.56 0.20 72 1018.5
20260901143558 19 276 6.4 17.7 0.00 0.56 0.20 77 1018.5
20260901143105 19 275 4.8 20.9 0.00 0.56 0.20 73 1018.4
20260901142556 20 284 8.0 20.9 0.00 0.56 0.20 70 1018.3
20260901142057 20 284 8.0 19.3 0.00 0.56 0.20 71 1018.4
20260901141605 20 281 11.3 29.0 0.00 0.56 0.20 72 1018.3
20260901141058 19 271 9.7 29.0 0.00 0.56 0.20 73 1018.3
20260901140558 19 324 11.3 30.6 0.00 0.56 0.20 73 1018.4
20260901140111 20 262 14.5 30.6 0.00 0.56 0.20 70 1018.3
20260901135557 21 301 8.0 27.4 0.00 0.64 0.20 66 1018.3
20260901135058 21 260 16.1 27.4 0.00 0.64 0.20 64 1018.2
20260901134608 21 236 14.5 29.0 0.00 0.64 0.20 62 1018.3
20260901134100 21 273 14.5 29.0 0.00 0.64 0.20 62 1018.4
20260901133557 22 277 16.1 29.0 0.00 0.64 0.20 60 1018.3
20260901133105 22 279 14.5 29.0 0.00 0.64 0.20 58 1018.2
20260901132557 22 260 17.7 33.8 0.00 0.64 0.20 59 1018.1
20260901132057 22 277 19.3 33.8 0.00 0.64 0.20 57 1018.1
20260901131602 22 277 12.9 29.0 0.00 0.64 0.20 58 1018.1
20260901131100 22 258 16.1 29.0 0.00 0.64 0.20 59 1018.2
20260901130557 22 250 16.1 30.6 0.00 0.64 0.20 60 1018.2
20260901130106 21 279 17.7 30.6 0.00 0.64 0.20 60 1018.2
20260901125558 21 242 14.5 30.6 0.00 0.64 0.20 63 1018.2
20260901125057 22 252 19.3 30.6 0.00 0.64 0.20 61 1018.1
20260901124602 22 250 14.5 25.7 0.00 0.64 0.20 62 1018.1
20260901124058 22 255 12.9 27.4 0.00 0.64 0.20 59 1018.2
20260901123558 22 274 16.1 27.4 0.00 0.64 0.20 60 1018.2
20260901123102 22 273 16.1 27.4 0.00 0.64 0.20 62 1018.2
20260901122557 21 279 14.5 29.0 0.00 0.64 0.20 63 1018.2
20260901122056 21 263 14.5 29.0 0.00 0.64 0.20 62 1018.2
20260901121559 22 209 12.9 29.0 0.00 0.64 0.20 61 1018.1
20260901121058 22 259 16.1 29.0 0.00 0.64 0.20 61 1018.1
20260901120558 22 287 16.1 25.7 0.00 0.64 0.20 61 1018.1
20260901120105 22 236 14.5 27.4 0.00 0.64 0.20 64 1018.2
20260901115557 21 240 14.5 27.4 0.00 0.64 0.20 64 1018.2
20260901115057 21 281 14.5 24.1 0.00 0.64 0.20 65 1018.2
20260901114645 21 232 12.9 24.1 0.00 0.64 0.20 66 1018.2
20260901114058 21 244 12.9 25.7 0.00 0.64 0.20 66 1018.3
20260901113557 21 267 16.1 30.6 0.00 0.64 0.20 65 1018.3
20260901113101 20 235 19.3 32.2 0.00 0.64 0.20 65 1018.3
20260901112556 21 250 16.1 32.2 0.00 0.64 0.20 66 1018.3
20260901112057 21 263 16.1 32.2 0.00 0.64 0.20 66 1018.3
20260901111620 21 244 17.7 32.2 0.00 0.64 0.20 64 1018.3
20260901111058 21 265 14.5 30.6 0.00 0.64 0.20 65 1018.2
20260901110559 21 267 16.1 30.6 0.00 0.64 0.20 65 1018.2
20260901110104 21 273 16.1 30.6 0.00 0.64 0.20 66 1018.2
20260901105558 20 273 14.5 30.6 0.00 0.64 0.20 67 1018.2
20260901105058 20 239 14.5 30.6 0.00 0.64 0.20 67 1018.3
20260901104603 20 277 16.1 30.6 0.00 0.64 0.20 67 1018.2
20260901104057 21 251 17.7 32.2 0.00 0.64 0.20 65 1018.2
20260901103557 21 252 16.1 32.2 0.00 0.64 0.20 70 1018.1
20260901103059 20 259 11.3 27.4 0.00 0.64 0.20 69 1018.2
20260901102557 21 251 14.5 37.0 0.00 0.64 0.20 69 1018.1
20260901102102 20 275 17.7 37.0 0.00 0.64 0.20 70 1018.2
20260901101607 20 281 20.9 35.4 0.00 0.64 0.20 69 1018.3
20260901101056 20 248 12.9 27.4 0.00 0.64 0.20 69 1018.2
20260901100557 20 246 12.9 27.4 0.00 0.64 0.20 74 1018.2
20260901100107 19 254 14.5 27.4 0.00 0.64 0.20 73 1018.1
20260901095601 19 229 12.9 29.0 0.00 0.64 0.20 76 1018.1
20260901095058 18 250 11.3 29.0 0.00 0.64 0.20 76 1018.1
20260901094604 18 232 14.5 25.7 0.00 0.64 0.20 78 1018.1
20260901094056 18 255 11.3 27.4 0.00 0.64 0.20 79 1018.1
20260901093557 18 259 14.5 27.4 0.00 0.64 0.20 79 1018.1
20260901093104 18 268 17.7 27.4 0.00 0.64 0.20 78 1018.1